GW2484 Weather Reports


Display with metric or nautical units.
time (UTC)temp
F
wind
direction
speed
MPH
gust
MPH
rain 1hr
in
rain 24hr
in
rain mn
in
humidity
%
barometer
mb
20260903033515 88 202 2.0 6.0 0.00 0.00 0.00 51 1013.5
20260903033016 88 202 3.0 8.0 0.00 0.00 0.00 51 1013.4
20260903032516 88 157 2.0 8.0 0.00 0.00 0.00 51 1013.5
20260903032013 88 171 2.0 7.0 0.00 0.00 0.00 51 1013.5
20260903031512 88 156 3.0 7.0 0.00 0.00 0.00 51 1013.4
20260903031017 88 160 3.0 5.0 0.00 0.00 0.00 51 1013.4
20260903030518 88 162 3.0 5.0 0.00 0.00 0.00 52 1013.4
20260903030033 87 167 2.0 4.0 0.00 0.00 0.00 52 1013.3
20260903025513 87 168 1.0 3.0 0.00 0.00 0.00 52 1013.3
20260903025011 87 169 1.0 3.0 0.00 0.00 0.00 52 1013.3
20260903024511 87 169 1.0 3.0 0.00 0.00 0.00 53 1013.1
20260903024009 87 169 0.0 3.0 0.00 0.00 0.00 53 1013.1
20260903023510 87 169 0.0 3.0 0.00 0.00 0.00 53 1013.1
20260903023009 87 169 1.0 3.0 0.00 0.00 0.00 53 1013.1
20260903022513 87 170 0.0 3.0 0.00 0.00 0.00 53 1013.0
20260903022011 87 170 0.0 2.0 0.00 0.00 0.00 53 1012.9
20260903021508 87 170 0.0 2.0 0.00 0.00 0.00 54 1012.9
20260903021012 87 170 0.0 2.0 0.00 0.00 0.00 53 1012.8
20260903020507 87 170 0.0 2.0 0.00 0.00 0.00 53 1012.8
20260903020013 87 170 0.0 2.0 0.00 0.00 0.00 53 1012.8
20260903015513 88 170 0.0 2.0 0.00 0.00 0.00 53 1012.7
20260903015010 88 170 0.0 2.0 0.00 0.00 0.00 52 1012.7
20260903014531 88 170 0.0 2.0 0.00 0.00 0.00 52 1012.7
20260903014010 88 171 0.0 2.0 0.00 0.00 0.00 53 1012.6
20260903013503 89 171 0.0 0.0 0.00 0.00 0.00 52 1012.6
20260903013023 89 171 0.0 0.0 0.00 0.00 0.00 51 1012.5
20260903012508 89 171 0.0 1.0 0.00 0.00 0.00 51 1012.5
20260903012004 90 171 0.0 2.0 0.00 0.00 0.00 50 1012.3
20260903011537 90 171 0.0 2.0 0.00 0.00 0.00 49 1012.3
20260903011008 90 171 0.0 2.0 0.00 0.00 0.00 48 1012.2
20260903010518 91 171 0.0 2.0 0.00 0.00 0.00 48 1012.1
20260903010018 91 171 0.0 0.0 0.00 0.00 0.00 48 1012.0
20260903005503 92 171 0.0 0.0 0.00 0.00 0.00 47 1012.0
20260903005018 93 171 0.0 0.0 0.00 0.00 0.00 46 1012.0
20260903004511 93 171 0.0 2.0 0.00 0.00 0.00 45 1012.0
20260903004015 94 171 0.0 2.0 0.00 0.00 0.00 44 1012.0
20260903003512 95 171 0.0 2.0 0.00 0.00 0.00 44 1012.0
20260903003010 95 171 0.0 3.0 0.00 0.00 0.00 42 1012.0
20260903002518 96 170 1.0 8.0 0.00 0.00 0.00 41 1012.0
20260903002012 96 167 0.0 8.0 0.00 0.00 0.00 40 1012.0
20260903001506 97 202 1.0 6.0 0.00 0.00 0.00 40 1012.0
20260903001018 97 199 2.0 6.0 0.00 0.00 0.00 39 1012.1
20260903000507 97 198 2.0 7.0 0.00 0.00 0.00 38 1012.1
20260903000003 98 193 3.0 7.0 0.00 0.00 0.00 38 1012.0
20260902235515 98 200 2.0 7.0 0.00 0.00 0.00 38 1012.1
20260902235007 99 227 2.0 7.0 0.00 0.00 0.00 36 1012.1
20260902234527 100 214 3.0 11.0 0.00 0.00 0.00 36 1012.1
20260902234019 100 213 4.0 11.0 0.00 0.00 0.00 36 1012.0
20260902233507 100 198 6.0 11.0 0.00 0.00 0.00 35 1012.1
20260902233022 100 200 4.0 10.0 0.00 0.00 0.00 35 1012.1
20260902232509 101 202 2.0 9.0 0.00 0.00 0.00 35 1012.2
20260902232004 101 194 2.0 9.0 0.00 0.00 0.00 34 1012.2
20260902231528 101 191 4.0 8.0 0.00 0.00 0.00 35 1012.2
20260902231009 101 210 2.0 6.0 0.00 0.00 0.00 35 1012.3
20260902230515 101 191 2.0 10.0 0.00 0.00 0.00 36 1012.3
20260902230018 101 193 5.0 10.0 0.00 0.00 0.00 35 1012.3
20260902225508 101 201 3.0 12.0 0.00 0.00 0.00 35 1012.3
20260902225015 101 211 7.0 11.0 0.00 0.00 0.00 36 1012.4
20260902224514 101 197 3.0 12.0 0.00 0.00 0.00 36 1012.4
20260902224017 101 210 5.0 12.0 0.00 0.00 0.00 35 1012.4
20260902223512 101 167 5.0 10.0 0.00 0.00 0.00 36 1012.5
20260902223015 101 194 3.0 9.0 0.00 0.00 0.00 36 1012.5
20260902222515 101 146 3.0 8.0 0.00 0.00 0.00 35 1012.5
20260902222011 101 183 1.0 10.0 0.00 0.00 0.00 36 1012.6
20260902221521 101 198 4.0 10.0 0.00 0.00 0.00 35 1012.7
20260902221017 101 153 6.0 14.0 0.00 0.00 0.00 37 1012.8
20260902220512 101 190 5.0 14.0 0.00 0.00 0.00 36 1012.8
20260902220007 102 208 6.0 12.0 0.00 0.00 0.00 35 1012.8
20260902215516 101 169 5.0 11.0 0.00 0.00 0.00 36 1012.9
20260902215009 100 160 5.0 13.0 0.00 0.00 0.00 38 1012.9
20260902214529 101 162 8.0 15.0 0.00 0.00 0.00 35 1013.0
20260902214011 101 229 7.0 15.0 0.00 0.00 0.00 36 1012.9
20260902213507 101 207 3.0 10.0 0.00 0.00 0.00 36 1012.9
20260902213033 101 183 4.0 9.0 0.00 0.00 0.00 36 1013.0
20260902212512 101 249 3.0 12.0 0.00 0.00 0.00 35 1013.1
20260902212006 101 185 5.0 12.0 0.00 0.00 0.00 35 1013.1
20260902211526 101 157 3.0 14.0 0.00 0.00 0.00 36 1013.1
20260902211011 101 233 6.0 14.0 0.00 0.00 0.00 36 1013.2
20260902210516 101 215 4.0 10.0 0.00 0.00 0.00 36 1013.2
20260902210023 102 146 6.0 9.0 0.00 0.00 0.00 36 1013.4
20260902205507 101 211 2.0 10.0 0.00 0.00 0.00 37 1013.5
20260902205020 101 227 4.0 12.0 0.00 0.00 0.00 37 1013.5
20260902204518 101 149 6.0 12.0 0.00 0.00 0.00 38 1013.6
20260902204020 101 149 8.0 13.0 0.00 0.00 0.00 37 1013.7
20260902203514 101 187 6.0 13.0 0.00 0.00 0.00 36 1013.7
20260902203019 101 221 4.0 14.0 0.00 0.00 0.00 37 1013.7
20260902202516 100 194 7.0 14.0 0.00 0.00 0.00 36 1013.8
20260902202019 100 171 6.0 16.0 0.00 0.00 0.00 37 1013.9
20260902201513 99 153 8.0 16.0 0.00 0.00 0.00 37 1014.0
20260902201019 100 152 7.0 15.0 0.00 0.00 0.00 35 1014.0
20260902200512 100 163 6.0 15.0 0.00 0.00 0.00 36 1014.1
20260902200035 100 204 2.0 8.0 0.00 0.00 0.00 37 1014.2
20260902195519 100 229 2.0 14.0 0.00 0.00 0.00 37 1014.2
20260902195011 100 235 4.0 14.0 0.00 0.00 0.00 39 1014.3
20260902194548 99 167 2.0 11.0 0.00 0.00 0.00 39 1014.2
20260902194012 99 242 5.0 11.0 0.00 0.00 0.00 39 1014.4
20260902193511 99 196 4.0 11.0 0.00 0.00 0.00 37 1014.6
20260902193030 99 227 5.0 14.0 0.00 0.00 0.00 40 1014.7
20260902192513 99 253 7.0 14.0 0.00 0.00 0.00 40 1014.8
20260902192019 99 192 5.0 12.0 0.00 0.00 0.00 40 1014.9
20260902191538 99 164 6.0 12.0 0.00 0.00 0.00 40 1015.1
20260902191012 99 241 3.0 11.0 0.00 0.00 0.00 38 1015.1
20260902190518 98 163 5.0 10.0 0.00 0.00 0.00 40 1015.2
20260902190025 98 175 4.0 18.0 0.00 0.00 0.00 42 1015.3
20260902185512 98 155 5.0 18.0 0.00 0.00 0.00 1015.4
20260902185018 97 171 6.0 18.0 0.00 0.00 0.00 44 1015.4
20260902184526 97 246 5.0 10.0 0.00 0.00 0.00 44 1015.5
20260902184016 98 244 4.0 9.0 0.00 0.00 0.00 40 1015.6
20260902183515 99 155 3.0 9.0 0.00 0.00 0.00 43 1015.5
20260902183022 98 173 4.0 11.0 0.00 0.00 0.00 42 1015.7
20260902182518 97 248 5.0 11.0 0.00 0.00 0.00 42 1015.7
20260902182018 97 260 5.0 11.0 0.00 0.00 0.00 43 1015.8
20260902181518 97 198 5.0 13.0 0.00 0.00 0.00 44 1015.9
20260902181018 97 163 6.0 12.0 0.00 0.00 0.00 43 1016.0
20260902180511 97 177 4.0 12.0 0.00 0.00 0.00 44 1016.0
20260902180033 96 219 4.0 11.0 0.00 0.00 0.00 44 1016.1
20260902175518 96 158 5.0 13.0 0.00 0.00 0.00 45 1016.2
20260902175014 96 213 7.0 13.0 0.00 0.00 0.00 46 1016.2
20260902174509 96 194 4.0 13.0 0.00 0.00 0.00 45 1016.2
20260902174003 96 151 4.0 11.0 0.00 0.00 0.00 48 1016.3
20260902173508 95 212 3.0 14.0 0.00 0.00 0.00 47 1016.4
20260902173006 95 185 5.0 14.0 0.00 0.00 0.00 47 1016.5
20260902172503 94 177 4.0 14.0 0.00 0.00 0.00 47 1016.5
20260902172013 95 203 6.0 14.0 0.00 0.00 0.00 46 1016.7
20260902171510 95 199 5.0 14.0 0.00 0.00 0.00 46 1016.8
20260902171017 95 172 5.0 12.0 0.00 0.00 0.00 49 1016.8
20260902170506 95 250 5.0 12.0 0.00 0.00 0.00 47 1016.9
20260902170003 96 142 6.0 11.0 0.00 0.00 0.00 47 1016.9
20260902165511 95 190 5.0 10.0 0.00 0.00 0.00 48 1017.1
20260902165008 94 202 2.0 10.0 0.00 0.00 0.00 50 1017.1
20260902164503 93 214 6.0 10.0 0.00 0.00 0.00 49 1017.1
20260902164012 94 242 4.0 10.0 0.00 0.00 0.00 49 1017.2
20260902163504 93 219 6.0 10.0 0.00 0.00 0.00 49 1017.2
20260902163023 93 192 5.0 10.0 0.00 0.00 0.00 51 1017.2
20260902162512 93 254 5.0 10.0 0.00 0.00 0.00 50 1017.3
20260902162004 93 218 5.0 11.0 0.00 0.00 0.00 53 1017.2
20260902161526 92 196 5.0 10.0 0.00 0.00 0.00 52 1017.3
20260902161006 92 243 6.0 12.0 0.00 0.00 0.00 53 1017.3
20260902160517 92 202 6.0 13.0 0.00 0.00 0.00 52 1017.3
20260902160016 92 207 6.0 13.0 0.00 0.00 0.00 53 1017.2
20260902155505 91 237 7.0 12.0 0.00 0.00 0.00 53 1017.3
20260902155012 91 210 4.0 14.0 0.00 0.00 0.00 55 1017.3
20260902154520 91 227 4.0 14.0 0.00 0.00 0.00 55 1017.3
20260902154004 90 200 5.0 13.0 0.00 0.00 0.00 55 1017.2
20260902153515 91 254 3.0 9.0 0.00 0.00 0.00 55 1017.3
20260902153012 91 242 4.0 12.0 0.00 0.00 0.00 55 1017.3
20260902152515 90 199 7.0 12.0 0.00 0.00 0.00 56 1017.3
20260902152011 90 208 4.0 11.0 0.00 0.00 0.00 55 1017.3
20260902151509 91 213 3.0 11.0 0.00 0.00 0.00 55 1017.2
20260902151015 90 224 4.0 11.0 0.00 0.00 0.00 59 1017.3
20260902150510 88 239 3.0 10.0 0.00 0.00 0.00 59 1017.3
20260902150007 88 228 3.0 11.0 0.00 0.00 0.00 59 1017.3
20260902145512 88 262 6.0 11.0 0.00 0.00 0.00 59 1017.3
20260902145011 88 227 6.0 10.0 0.00 0.00 0.00 60 1017.3
20260902144530 87 198 3.0 10.0 0.00 0.00 0.00 60 1017.4
20260902144012 87 214 3.0 10.0 0.00 0.00 0.00 60 1017.4
20260902143507 87 204 4.0 9.0 0.00 0.00 0.00 61 1017.5
20260902143025 87 225 3.0 9.0 0.00 0.00 0.00 63 1017.5
20260902142509 86 220 4.0 8.0 0.00 0.00 0.00 63 1017.5
20260902142006 85 231 1.0 7.0 0.00 0.00 0.00 64 1017.5
20260902141533 85 208 2.0 8.0 0.00 0.00 0.00 63 1017.4
20260902141008 85 246 2.0 8.0 0.00 0.00 0.00 64 1017.5
20260902140516 85 202 2.0 8.0 0.00 0.00 0.00 64 1017.5
20260902140023 84 235 4.0 9.0 0.00 0.00 0.00 64 1017.4
20260902135506 84 190 2.0 9.0 0.00 0.00 0.00 64 1017.5
20260902135017 84 183 4.0 8.0 0.00 0.00 0.00 64 1017.4
20260902134517 84 204 3.0 8.0 0.00 0.00 0.00 65 1017.4
20260902134008 83 196 3.0 7.0 0.00 0.00 0.00 66 1017.5
20260902133520 83 220 2.0 7.0 0.00 0.00 0.00 67 1017.5
20260902133016 82 169 1.0 4.0 0.00 0.00 0.00 68 1017.5
20260902132520 81 192 1.0 4.0 0.00 0.00 0.00 69 1017.5
20260902132012 81 173 1.0 4.0 0.00 0.00 0.00 70 1017.4
20260902131513 80 167 1.0 5.0 0.00 0.00 0.00 72 1017.4
20260902131016 79 210 1.0 5.0 0.00 0.00 0.00 72 1017.3
20260902130512 78 216 3.0 5.0 0.00 0.00 0.00 74 1017.4
20260902130024 78 203 1.0 4.0 0.00 0.00 0.00 75 1017.4
20260902125513 77 199 3.0 5.0 0.00 0.00 0.00 75 1017.4
20260902125012 77 207 2.0 5.0 0.00 0.00 0.00 76 1017.3
20260902124531 76 196 1.0 3.0 0.00 0.00 0.00 77 1017.2
20260902124015 76 193 0.0 3.0 0.00 0.00 0.00 77 1017.2
20260902123509 76 193 1.0 3.0 0.00 0.00 0.00 77 1017.1
20260902123031 75 193 0.0 2.0 0.00 0.00 0.00 78 1017.0
20260902122512 75 193 0.0 2.0 0.00 0.00 0.00 78 1017.0
20260902122009 75 193 0.0 2.0 0.00 0.00 0.00 79 1016.8
20260902121531 75 193 0.0 2.0 0.00 0.00 0.00 79 1016.8
20260902121014 75 193 0.0 2.0 0.00 0.00 0.00 79 1016.8
20260902120516 75 193 0.0 2.0 0.00 0.00 0.00 79 1016.8
20260902120028 75 193 0.0 1.0 0.00 0.00 0.00 79 1016.7
20260902115508 75 193 0.0 0.0 0.00 0.00 0.00 79 1016.7
20260902115021 75 193 0.0 0.0 0.00 0.00 0.00 79 1016.7
20260902114527 75 193 0.0 0.0 0.00 0.00 0.00 78 1016.5
20260902114010 75 193 0.0 0.0 0.00 0.00 0.00 78 1016.5
20260902113515 75 193 0.0 0.0 0.00 0.00 0.00 78 1016.4
20260902113022 75 193 0.0 0.0 0.00 0.00 0.00 77 1016.4
20260902112517 76 193 0.0 0.0 0.00 0.00 0.00 77 1016.3
20260902112014 76 193 0.0 0.0 0.00 0.00 0.00 77 1016.2
20260902111522 76 193 0.0 0.0 0.00 0.00 0.00 77 1016.1
20260902111017 76 193 0.0 1.0 0.00 0.00 0.00 76 1016.1
20260902110512 76 193 0.0 1.0 0.00 0.00 0.00 76 1016.2
20260902110012 77 193 0.0 0.0 0.00 0.00 0.00 76 1016.2
20260902105514 77 193 0.0 0.0 0.00 0.00 0.00 74 1016.2
20260902105017 77 193 0.0 0.0 0.00 0.00 0.00 74 1016.1
20260902104539 77 193 0.0 0.0 0.00 0.00 0.00 73 1016.1
20260902104014 78 193 0.0 0.0 0.00 0.00 0.00 73 1016.1
20260902103509 78 193 0.0 0.0 0.00 0.00 0.00 72 1016.0
20260902103034 78 193 0.0 1.0 0.00 0.00 0.00 71 1016.0
20260902102514 78 193 0.0 3.0 0.00 0.00 0.00 71 1016.0
20260902102011 78 193 0.0 3.0 0.00 0.00 0.00 70 1015.9
20260902101529 78 193 0.0 2.0 0.00 0.00 0.00 70 1015.9
20260902101012 79 193 1.0 2.0 0.00 0.00 0.00 70 1015.9
20260902100520 79 193 0.0 2.0 0.00 0.00 0.00 70 1015.9
20260902100027 79 193 1.0 2.0 0.00 0.00 0.00 69 1015.8
20260902095512 79 193 1.0 2.0 0.00 0.00 0.00 69 1015.8
20260902095018 79 193 0.0 2.0 0.00 0.00 0.00 69 1015.8
20260902094526 79 193 0.0 2.0 0.00 0.00 0.00 68 1015.7
20260902094018 80 193 0.0 3.0 0.00 0.00 0.00 68 1015.6
20260902093516 80 193 1.0 7.0 0.00 0.00 0.00 68 1015.6
20260902093035 80 168 0.0 7.0 0.00 0.00 0.00 67 1015.5
20260902092517 80 164 2.0 7.0 0.00 0.00 0.00 67 1015.5
20260902092015 80 174 3.0 7.0 0.00 0.00 0.00 67 1015.4
20260902091526 80 150 4.0 6.0 0.00 0.00 0.00 67 1015.5
20260902091022 80 167 3.0 6.0 0.00 0.00 0.00 66 1015.6
20260902090515 80 156 2.0 3.0 0.00 0.00 0.00 66 1015.7
20260902090034 80 162 1.0 2.0 0.00 0.00 0.00 65 1015.7
20260902085515 80 162 0.0 2.0 0.00 0.00 0.00 65 1015.7
20260902085015 80 181 1.0 2.0 0.00 0.00 0.00 65 1015.7
20260902084520 80 180 0.0 2.0 0.00 0.00 0.00 64 1015.7
20260902084004 81 181 0.0 2.0 0.00 0.00 0.00 64 1015.7
20260902083513 81 181 0.0 2.0 0.00 0.00 0.00 64 1015.7
20260902083012 81 185 0.0 2.0 0.00 0.00 0.00 64 1015.8
20260902082503 81 185 0.0 2.0 0.00 0.00 0.00 63 1015.8
20260902082013 81 185 0.0 2.0 0.00 0.00 0.00 63 1015.8
20260902081507 81 196 0.0 2.0 0.00 0.00 0.00 63 1015.7
20260902081015 82 196 0.0 2.0 0.00 0.00 0.00 63 1015.6
20260902080512 82 196 0.0 2.0 0.00 0.00 0.00 63 1015.7
20260902080010 82 196 0.0 3.0 0.00 0.00 0.00 61 1015.7
20260902075514 83 196 0.0 3.0 0.00 0.00 0.00 61 1015.7
20260902075009 83 196 1.0 4.0 0.00 0.00 0.00 59 1015.7
20260902074505 83 200 2.0 4.0 0.00 0.00 0.00 58 1015.7
20260902074012 84 198 1.0 4.0 0.00 0.00 0.00 58 1015.7
20260902073507 84 197 2.0 4.0 0.00 0.00 0.00 57 1015.8
20260902073033 84 195 2.0 8.0 0.00 0.00 0.00 57 1015.8
20260902072511 84 196 2.0 8.0 0.00 0.00 0.00 56 1015.7
20260902072003 84 204 2.0 7.0 0.00 0.00 0.00 56 1015.7
20260902071530 84 212 3.0 7.0 0.00 0.00 0.00 56 1015.7
20260902071008 84 206 3.0 7.0 0.00 0.00 0.00 56 1015.7
20260902070504 85 198 3.0 7.0 0.00 0.00 0.00 55 1015.7
20260902070023 85 196 3.0 7.0 0.00 0.00 0.00 55 1015.7
20260902065508 85 196 2.0 7.0 0.00 0.00 0.00 55 1015.6
20260902065018 85 196 3.0 7.0 0.00 0.00 0.00 55 1015.6
20260902064520 85 198 2.0 7.0 0.00 0.00 0.00 55 1015.7
20260902064005 85 175 2.0 7.0 0.00 0.00 0.00 55 1015.7
20260902063517 84 189 2.0 7.0 0.00 0.00 0.00 55 1015.7
20260902063017 84 191 3.0 6.0 0.00 0.00 0.00 56 1015.6
20260902062504 83 160 2.0 6.0 0.00 0.00 0.00 57 1015.6
20260902062013 83 183 1.0 4.0 0.00 0.00 0.00 57 1015.6
20260902061514 83 198 1.0 4.0 0.00 0.00 0.00 58 1015.6
20260902061028 83 194 1.0 4.0 0.00 0.00 0.00 59 1015.6
20260902060512 83 189 1.0 3.0 0.00 0.00 0.00 59 1015.5
20260902060010 83 182 1.0 3.0 0.00 0.00 0.00 59 1015.5
20260902055514 83 191 0.0 2.0 0.00 0.00 0.00 60 1015.4
20260902055010 83 191 1.0 2.0 0.00 0.00 0.00 60 1015.4
20260902054520 83 213 0.0 2.0 0.00 0.00 0.00 59 1015.4
20260902054013 82 213 0.0 2.0 0.00 0.00 0.00 59 1015.4
20260902053507 82 213 0.0 2.0 0.00 0.00 0.00 59 1015.3
20260902053033 83 213 0.0 2.0 0.00 0.00 0.00 59 1015.2
20260902052516 83 213 0.0 2.0 0.00 0.00 0.00 59 1015.1
20260902052017 83 213 0.0 2.0 0.00 0.00 0.00 59 1015.1
20260902051531 83 213 1.0 2.0 0.00 0.00 0.00 59 1015.2
20260902051009 82 213 1.0 2.0 0.00 0.00 0.00 59 1015.1
20260902050504 82 216 0.0 2.0 0.00 0.00 0.00 60 1015.1
20260902050028 82 216 1.0 3.0 0.00 0.00 0.00 60 1015.0
20260902045510 82 217 0.0 3.0 0.00 0.00 0.00 60 1015.0
20260902045018 82 157 0.0 2.0 0.00 0.00 0.00 60 1015.1
20260902044524 83 157 0.0 2.0 0.00 0.00 0.00 60 1015.0
20260902044010 83 157 0.0 0.0 0.00 0.00 0.00 60 1014.9
20260902043517 83 157 0.0 0.0 0.00 0.00 0.00 60 1014.9
20260902043019 83 157 0.0 0.0 0.00 0.00 0.00 59 1014.9
20260902042507 83 157 0.0 0.0 0.00 0.00 0.00 59 1014.9
20260902042013 83 157 0.0 0.0 0.00 0.00 0.00 59 1014.8
20260902041515 84 157 0.0 0.0 0.00 0.00 0.00 59 1014.8
20260902041019 84 157 0.0 0.0 0.00 0.00 0.00 59 1014.9
20260902040518 84 157 0.0 0.0 0.00 0.00 0.00 58 1014.9
20260902040012 84 157 0.0 0.0 0.00 0.00 0.00 58 1014.8
20260902035513 84 157 0.0 0.0 0.00 0.00 0.00 58 1014.7
20260902035012 84 157 0.0 0.0 0.00 0.00 0.00 56 1014.7
20260902034533 84 157 0.0 2.0 0.00 0.00 0.00 56 1014.6
20260902034015 84 157 0.0 2.0 0.00 0.00 0.00 56 1014.7